TimeMDT,TemperatureF,Dew PointF,Humidity,Sea Level PressureIn,VisibilityMPH,Wind Direction,Wind SpeedMPH,Gust SpeedMPH,PrecipitationIn,Events,Conditions,WindDirDegrees,DateUTC
12:00 AM,48,44,83,29.95,,NW,1.2,,,,,320,2013-05-24 06:00:00
12:00 AM,48.0,44.4,87,29.95,-9999.0,NW,1.2,-,N/A,,Unknown,320,2013-05-24 06:00:00
1:00 AM,44.6,42.3,91,29.95,-9999.0,NW,1.2,-,N/A,,Unknown,310,2013-05-24 07:00:00
2:00 AM,41.9,40.1,93,29.95,-9999.0,ENE,1.2,-,N/A,,Unknown,60,2013-05-24 08:00:00
3:00 AM,42.4,41.2,95,29.95,-9999.0,NW,2.3,-,N/A,,Unknown,320,2013-05-24 09:00:00
4:00 AM,44.4,41.4,89,29.95,-9999.0,North,2.3,-,N/A,,Unknown,360,2013-05-24 10:00:00
5:00 AM,41.0,38.7,91,29.96,-9999.0,North,1.2,-,N/A,,Unknown,360,2013-05-24 11:00:00
6:00 AM,44,40,83,29.97,,NNW,3.5,,,,,340,2013-05-24 12:00:00
6:00 AM,43.7,40.5,88,29.97,-9999.0,NNW,3.5,-,N/A,,Unknown,340,2013-05-24 12:00:00
7:00 AM,45.0,40.5,84,29.97,-9999.0,NNW,4.6,-,N/A,,Unknown,340,2013-05-24 13:00:00
8:00 AM,49.1,41.7,76,29.99,-9999.0,NNW,3.5,-,N/A,,Unknown,340,2013-05-24 14:00:00
9:00 AM,57.2,44.2,62,30.01,-9999.0,NW,2.3,-,N/A,,Unknown,310,2013-05-24 15:00:00
10:00 AM,61.0,45.1,56,30.01,-9999.0,SW,2.3,-,N/A,,Unknown,220,2013-05-24 16:00:00
11:00 AM,65.5,45.1,48,30.00,-9999.0,SSW,3.5,-,N/A,,Unknown,210,2013-05-24 17:00:00
12:00 PM,72,44,25,30.00,,NNE,4.6,,,,,30,2013-05-24 18:00:00
12:00 PM,71.6,43.5,36,30.00,-9999.0,NNE,4.6,-,N/A,,Unknown,30,2013-05-24 18:00:00
1:00 PM,73.9,44.2,35,29.98,-9999.0,North,2.3,-,N/A,,Unknown,10,2013-05-24 19:00:00
2:00 PM,76.1,44.1,32,29.97,-9999.0,NNW,2.3,-,N/A,,Unknown,340,2013-05-24 20:00:00
3:00 PM,78.8,43.7,29,29.96,-9999.0,NE,3.5,-,N/A,,Unknown,40,2013-05-24 21:00:00
4:00 PM,79.9,42.1,26,29.94,-9999.0,East,3.5,-,N/A,,Unknown,80,2013-05-24 22:00:00
5:00 PM,84.4,37.0,19,29.93,-9999.0,East,3.5,-,N/A,,Unknown,90,2013-05-24 23:00:00
6:00 PM,82,38,12,29.91,,SE,4.6,,,,,130,2013-05-25 00:00:00
6:00 PM,82.4,37.9,20,29.91,-9999.0,SE,4.6,-,N/A,,Unknown,130,2013-05-25 00:00:00
7:00 PM,79.5,42.4,27,29.92,-9999.0,NE,4.6,-,N/A,,Unknown,50,2013-05-25 01:00:00
8:00 PM,80.6,42.1,25,29.92,-9999.0,NE,4.6,-,N/A,,Unknown,50,2013-05-25 02:00:00
9:00 PM,75.0,43.9,33,29.93,-9999.0,NE,2.3,-,N/A,,Unknown,50,2013-05-25 03:00:00
10:00 PM,72.0,43.9,36,29.94,-9999.0,NNE,2.3,-,N/A,,Unknown,30,2013-05-25 04:00:00
11:00 PM,69.1,44.4,41,29.96,-9999.0,NE,1.2,-,N/A,,Unknown,50,2013-05-25 05:00:00